DW0000 Weather Reports


time (UTC)temp
C
wind
direction
speed
KPH
gust
KPH
rain 1hr
cm
rain 24hr
cm
rain mn
cm
humidity
%
barometer
mb
20260505025005 19 49 8.0 14.5 0.00 0.00 0.00 74 1029.5
20260505024007 19 81 9.7 19.3 0.00 0.00 0.00 73 1029.5
20260505023005 19 88 1.6 12.9 0.00 0.00 0.00 74 1029.5
20260505022506 19 94 6.4 14.5 0.00 0.00 0.00 74 1029.6
20260505021506 19 51 9.7 19.3 0.00 0.00 0.00 72 1029.5
20260505015505 20 47 9.7 14.5 0.00 0.00 0.00 72 1029.5
20260505015006 20 69 9.7 16.1 0.00 0.00 0.00 71 1029.5
20260505014506 20 87 6.4 19.3 0.00 0.00 0.00 72 1029.5
20260505014005 20 36 11.3 20.9 0.00 0.00 0.00 70 1029.6
20260505013506 20 61 9.7 19.3 0.00 0.00 0.00 70 1029.8
20260505005507 20 31 4.8 14.5 0.00 0.00 0.00 73 1030.1
20260505005005 20 83 9.7 19.3 0.00 0.00 0.00 72 1030.2
20260505004007 19 50 8.0 19.3 0.00 0.00 0.00 74 1030.5
20260505003505 19 77 8.0 14.5 0.00 0.00 0.00 75 1030.5
20260505003005 18 48 6.4 12.9 0.00 0.00 0.00 76 1030.6
20260505002007 18 73 8.0 16.1 0.00 0.00 0.00 74 1030.8
20260505001005 18 98 8.0 19.3 0.00 0.00 0.00 75 1030.8
20260505000505 18 85 8.0 16.1 0.00 0.00 0.00 74 1030.9
20260504235505 18 77 9.7 12.9 0.00 0.00 0.00 76 1030.9
20260504233506 18 56 6.4 16.1 0.00 0.00 0.00 75 1031.2
20260504230505 17 80 9.7 19.3 0.00 0.00 0.00 76 1031.6
20260504225505 17 35 8.0 16.1 0.00 0.00 0.00 79 1031.7
20260504225005 16 63 9.7 20.9 0.00 0.00 0.00 81 1031.7
20260504223505 16 88 9.7 12.9 0.00 0.00 0.00 83 1031.8
20260504223006 15 94 9.7 16.1 0.00 0.00 0.00 85 1031.7
20260504222505 15 86 9.7 14.5 0.00 0.00 0.00 85 1031.8
20260504221505 14 74 8.0 19.3 0.00 0.00 0.00 83 1031.9
20260504221007 14 60 11.3 16.1 0.00 0.00 0.00 83 1031.8
20260504220006 14 38 8.0 11.3 0.00 0.00 0.00 83 1032.0
20260504215505 14 24 8.0 12.9 0.00 0.00 0.00 83 1031.8
20260504214004 14 37 8.0 12.9 0.00 0.00 0.00 82 1031.6
20260504213505 14 64 4.8 9.7 0.00 0.00 0.00 83 1031.7
20260504213004 13 96 4.8 8.0 0.00 0.00 0.00 85 1031.7
20260504212005 13 65 3.2 9.7 0.00 0.00 0.00 86 1031.9
20260504210005 12 71 6.4 11.3 0.00 0.00 0.00 87 1031.8
20260504205505 12 74 4.8 9.7 0.00 0.00 0.00 87 1031.8
20260504204505 12 78 4.8 9.7 0.00 0.00 0.00 88 1031.7
20260504203505 12 104 3.2 9.7 0.00 0.00 0.00 88 1031.7
20260504203005 12 98 4.8 11.3 0.00 0.00 0.00 89 1031.6
20260504202506 12 89 4.8 9.7 0.00 0.00 0.00 89 1031.6
20260504202005 12 99 4.8 8.0 0.00 0.00 0.00 89 1031.7
20260504201505 11 92 4.8 9.7 0.00 0.00 0.00 89 1031.7
20260504201006 11 86 6.4 9.7 0.00 0.00 0.00 89 1031.7
20260504200505 11 87 4.8 8.0 0.00 0.00 0.00 89 1031.7
20260504200005 11 80 3.2 4.8 0.00 0.00 0.00 89 1031.7
20260504195505 11 102 1.6 3.2 0.00 0.00 0.00 89 1031.7
20260504194005 11 78 3.2 8.0 0.00 0.00 0.00 89 1031.6
20260504193504 11 73 4.8 8.0 0.00 0.00 0.00 89 1031.8
20260504193007 11 58 4.8 9.7 0.00 0.00 0.00 89 1031.7
20260504192506 11 77 4.8 8.0 0.00 0.00 0.00 89 1031.7
20260504192005 11 74 3.2 8.0 0.00 0.00 0.00 89 1031.7
20260504191504 11 61 3.2 4.8 0.00 0.00 0.00 89 1031.6
20260504191004 11 46 1.6 4.8 0.00 0.00 0.00 89 1031.7
20260504184506 11 66 3.2 8.0 0.00 0.00 0.00 89 1031.5
20260504184005 11 67 4.8 8.0 0.00 0.00 0.00 89 1031.5
20260504180006 11 84 6.4 11.3 0.00 0.00 0.00 89 1031.6
20260504174506 11 88 4.8 11.3 0.00 0.00 0.00 89 1031.5
20260504173505 11 72 3.2 4.8 0.00 0.00 0.00 89 1031.7
20260504173006 11 89 4.8 8.0 0.00 0.00 0.00 88 1031.6
20260504172005 11 6 1.6 3.2 0.00 0.00 0.00 88 1031.5
20260504171004 11 40 1.6 4.8 0.00 0.00 0.00 89 1031.5
20260504151006 11 84 3.2 4.8 0.00 0.00 0.00 85 1031.9
20260504141006 12 185 1.6 3.2 0.00 0.00 0.00 81 1032.4
20260504130506 12 58 3.2 4.8 0.00 0.00 0.00 80 1032.8
20260504081005 12 59 1.6 3.2 0.00 0.00 0.00 81 1033.2
20260504050507 15 143 1.6 8.0 0.00 0.00 0.00 73 1031.7
20260504045008 16 141 3.2 9.7 0.00 0.00 0.00 72 1032.0
20260504044007 16 144 4.8 8.0 0.00 0.00 0.00 71 1031.8
20260504042505 16 131 3.2 4.8 0.00 0.00 0.00 69 1031.9
20260504042007 16 48 3.2 9.7 0.00 0.00 0.00 69 1031.9
20260504041505 16 122 4.8 9.7 0.00 0.00 0.00 68 1031.9
20260504040006 17 39 4.8 11.3 0.00 0.00 0.00 67 1031.9
20260504035505 17 155 6.4 11.3 0.00 0.00 0.00 66 1032.0
20260504035007 17 34 4.8 9.7 0.00 0.00 0.00 66 1031.8
20260504033506 17 48 6.4 14.5 0.00 0.00 0.00 66 1031.9
20260504033005 17 137 9.7 14.5 0.00 0.00 0.00 65 1031.9
20260504030505 17 78 4.8 12.9 0.00 0.00 0.00 67 1032.0
20260504030005 17 120 8.0 11.3 0.00 0.00 0.00 67 1032.0